This is the latest recevied weather packets stored in our database for station/object N4ASP-13. If no packets are shown the sender has not sent any weather packets the latest 10 day(s).
| Time | Temp. | Humidity | Pressure | Rain* | Wind** | Luminosity | Snow |
|---|---|---|---|---|---|---|---|
| 1778011453 | 22.78° C | 46% | 1014.4 hPa | 0 mm | - | 854 W/m² | - |
| 1778011390 | 22.78° C | 45% | 1014.5 hPa | 0 mm | - | 882 W/m² | - |
| 1778011325 | 22.78° C | 45% | 1014.5 hPa | 0 mm | - | 923 W/m² | - |
| 1778011265 | 22.78° C | 45% | 1014.6 hPa | 0 mm | - | 923 W/m² | - |
| 1778011205 | 22.78° C | 44% | 1014.6 hPa | 0 mm | - | 923 W/m² | - |
| 1778011144 | 22.78° C | 45% | 1014.6 hPa | 0 mm | - | 884 W/m² | - |
| 1778011085 | 22.78° C | 45% | 1014.7 hPa | 0 mm | - | 708 W/m² | - |
| 1778011020 | 22.78° C | 47% | 1014.6 hPa | 0 mm | - | 675 W/m² | - |
| 1778010958 | 22.78° C | 46% | 1014.6 hPa | 0 mm | - | 671 W/m² | - |
| 1778010899 | 22.78° C | 45% | 1014.6 hPa | 0 mm | - | 628 W/m² | - |
| 1778010839 | 22.78° C | 46% | 1014.6 hPa | 0 mm | - | 582 W/m² | - |
| 1778010779 | 22.78° C | 46% | 1014.6 hPa | 0 mm | - | 568 W/m² | - |
| 1778010710 | 22.78° C | 46% | 1014.5 hPa | 0 mm | - | 540 W/m² | - |
| 1778010652 | 22.78° C | 45% | 1014.7 hPa | 0 mm | - | 533 W/m² | - |
| 1778010590 | 22.78° C | 46% | 1014.7 hPa | 0 mm | - | 548 W/m² | - |
| 1778010530 | 22.78° C | 45% | 1014.6 hPa | 0 mm | - | 557 W/m² | - |
| 1778010470 | 22.78° C | 46% | 1014.7 hPa | 0 mm | - | 578 W/m² | - |
| 1778010405 | 22.78° C | 46% | 1014.6 hPa | 0 mm | - | 642 W/m² | - |
| 1778010343 | 22.78° C | 45% | 1014.5 hPa | 0 mm | - | 425 W/m² | - |
| 1778010282 | 22.78° C | 45% | 1014.6 hPa | 0 mm | - | 425 W/m² | - |
| 1778010224 | 22.78° C | 44% | 1014.6 hPa | 0 mm | - | 670 W/m² | - |
| 1778010163 | 22.78° C | 44% | 1014.6 hPa | 0 mm | - | 705 W/m² | - |
| 1778010095 | 23.33° C | 45% | 1014.8 hPa | 0 mm | - | 666 W/m² | - |
| 1778010037 | 23.33° C | 45% | 1014.5 hPa | 0 mm | - | 664 W/m² | - |
| 1778009977 | 23.33° C | 43% | 1014.6 hPa | 0 mm | - | 617 W/m² | - |
* Rain latest hour (hover to see other rain measurements)
** Current wind speed in m/s (hover to see current wind gust speed)